Terminal Aerodrome Forecast
Issued by NWS Buffalo, NY

Home | Current Version | Previous Version | Text Only | Print | Product List | Glossary On
Versions: 1 2 3 4 5 6 7 8 9 10 11 12 13 14 15 16 17 18 19 20 21 22 23 24 25 26
000
FTUS41 KBUF 040539
TAFBUF
TAF
KBUF 040539Z 0406/0506 04003KT P6SM BKN150
     FM041400 35006KT P6SM SCT050
     FM042000 26008KT P6SM SKC
     FM050000 VRB03KT P6SM SKC=

USA.gov is the U.S. government's official web portal to all federal, state and local government web resources and services.